Year,Month,Day,Hour,Minute,Value (Times are PST for windspeed in km/hr)
2012,03,12,00,00,14.00
2012,03,12,00,01,9.20
2012,03,12,00,02,22.10
2012,03,12,00,03,20.40
2012,03,12,00,04,20.00
2012,03,12,00,05,19.20
2012,03,12,00,06,25.20
2012,03,12,00,07,20.70
2012,03,12,00,08,20.20
2012,03,12,00,09,18.90
2012,03,12,00,10,9.20
2012,03,12,00,11,14.30
2012,03,12,00,12,25.50
2012,03,12,00,13,24.40
2012,03,12,00,14,19.90
2012,03,12,00,15,20.90
2012,03,12,00,16,20.90
2012,03,12,00,17,21.70
2012,03,12,00,18,24.70
2012,03,12,00,19,24.00
2012,03,12,00,20,21.30
2012,03,12,00,21,22.50
2012,03,12,00,22,18.50
2012,03,12,00,23,24.80
2012,03,12,00,24,18.70
2012,03,12,00,25,19.70
2012,03,12,00,26,16.20
2012,03,12,00,27,22.40
2012,03,12,00,28,26.10
2012,03,12,00,29,23.20
2012,03,12,00,30,20.60
2012,03,12,00,31,18.80
2012,03,12,00,32,16.80
2012,03,12,00,33,21.30
2012,03,12,00,34,16.20
2012,03,12,00,35,24.20
2012,03,12,00,36,19.50
2012,03,12,00,37,14.60
2012,03,12,00,38,17.20
2012,03,12,00,39,15.50
2012,03,12,00,40,22.80
2012,03,12,00,41,11.80
2012,03,12,00,42,21.30
2012,03,12,00,43,13.30
2012,03,12,00,44,13.00
2012,03,12,00,45,18.40
2012,03,12,00,46,26.40
2012,03,12,00,47,24.10
2012,03,12,00,48,18.80
2012,03,12,00,49,11.90
2012,03,12,00,50,15.90
2012,03,12,00,51,19.00
2012,03,12,00,52,18.30
2012,03,12,00,53,15.60
2012,03,12,00,54,13.20
2012,03,12,00,55,28.20
2012,03,12,00,56,19.60
2012,03,12,00,57,23.00
2012,03,12,00,58,23.30
2012,03,12,00,59,18.10
2012,03,12,01,00,14.80
2012,03,12,01,01,17.90
2012,03,12,01,02,29.60
2012,03,12,01,03,24.70
2012,03,12,01,04,19.40
2012,03,12,01,05,26.70
2012,03,12,01,06,17.90
2012,03,12,01,07,21.30
2012,03,12,01,08,13.50
2012,03,12,01,09,18.40
2012,03,12,01,10,16.70
2012,03,12,01,11,19.20
2012,03,12,01,12,22.80
2012,03,12,01,13,17.30
2012,03,12,01,14,23.30
2012,03,12,01,15,21.70
2012,03,12,01,16,22.80
2012,03,12,01,17,18.10
2012,03,12,01,18,16.40
2012,03,12,01,19,19.70
2012,03,12,01,20,22.00
2012,03,12,01,21,28.00
2012,03,12,01,22,14.80
2012,03,12,01,23,13.30
2012,03,12,01,24,20.80
2012,03,12,01,25,17.20
2012,03,12,01,26,19.20
2012,03,12,01,27,21.70
2012,03,12,01,28,19.90
2012,03,12,01,29,13.70
2012,03,12,01,30,26.00
2012,03,12,01,31,17.30
2012,03,12,01,32,23.70
2012,03,12,01,33,29.20
2012,03,12,01,34,19.80
2012,03,12,01,35,23.20
2012,03,12,01,36,29.70
2012,03,12,01,37,25.80
2012,03,12,01,38,26.10
2012,03,12,01,39,33.00
2012,03,12,01,40,16.70
2012,03,12,01,41,28.20
2012,03,12,01,42,13.50
2012,03,12,01,43,18.90
2012,03,12,01,44,18.40
2012,03,12,01,45,25.90
2012,03,12,01,46,20.00
2012,03,12,01,47,18.40
2012,03,12,01,48,18.60
2012,03,12,01,49,18.10
2012,03,12,01,50,21.40
2012,03,12,01,51,22.90
2012,03,12,01,52,21.40
2012,03,12,01,53,27.40
2012,03,12,01,54,26.30
2012,03,12,01,55,23.60
2012,03,12,01,56,22.70
2012,03,12,01,57,28.30
2012,03,12,01,58,21.10
2012,03,12,01,59,20.10
2012,03,12,02,00,20.80
2012,03,12,02,01,22.90
2012,03,12,02,02,28.70
2012,03,12,02,03,29.00
2012,03,12,02,04,31.10
2012,03,12,02,05,27.40
2012,03,12,02,06,24.80
2012,03,12,02,07,18.20
2012,03,12,02,08,23.30
2012,03,12,02,09,20.40
2012,03,12,02,10,19.00
2012,03,12,02,11,27.40
2012,03,12,02,12,29.10
2012,03,12,02,13,20.40
2012,03,12,02,14,18.40
2012,03,12,02,15,28.60
2012,03,12,02,16,25.20
2012,03,12,02,17,16.20
2012,03,12,02,18,23.50
2012,03,12,02,19,22.80
2012,03,12,02,20,26.20
2012,03,12,02,21,23.20
2012,03,12,02,22,22.90
2012,03,12,02,23,18.90
2012,03,12,02,24,19.20
2012,03,12,02,25,23.00
2012,03,12,02,26,24.70
2012,03,12,02,27,23.30
2012,03,12,02,28,26.40
2012,03,12,02,29,24.30
2012,03,12,02,30,22.70
2012,03,12,02,31,25.80
2012,03,12,02,32,32.30
2012,03,12,02,33,24.60
2012,03,12,02,34,29.00
2012,03,12,02,35,24.40
2012,03,12,02,36,25.20
2012,03,12,02,37,27.90
2012,03,12,02,38,25.60
2012,03,12,02,39,21.10
2012,03,12,02,40,16.80
2012,03,12,02,41,20.60
2012,03,12,02,42,27.70
2012,03,12,02,43,27.70
2012,03,12,02,44,18.90
2012,03,12,02,45,23.60
2012,03,12,02,46,25.20
2012,03,12,02,47,26.30
2012,03,12,02,48,23.30
2012,03,12,02,49,19.80
2012,03,12,02,50,15.40
2012,03,12,02,51,21.70
2012,03,12,02,52,20.10
2012,03,12,02,53,22.20
2012,03,12,02,54,16.70
2012,03,12,02,55,21.90
2012,03,12,02,56,19.20
2012,03,12,02,57,19.70
2012,03,12,02,58,21.50
2012,03,12,02,59,24.30
2012,03,12,03,00,15.80
2012,03,12,03,01,19.50
2012,03,12,03,02,17.20
2012,03,12,03,03,24.90
2012,03,12,03,04,25.10
2012,03,12,03,05,21.70
2012,03,12,03,06,26.00
2012,03,12,03,07,27.00
2012,03,12,03,08,24.00
2012,03,12,03,09,24.60
2012,03,12,03,10,18.70
2012,03,12,03,11,23.00
2012,03,12,03,12,25.80
2012,03,12,03,13,29.00
2012,03,12,03,14,19.50
2012,03,12,03,15,22.10
2012,03,12,03,16,21.00
2012,03,12,03,17,26.10
2012,03,12,03,18,27.00
2012,03,12,03,19,21.90
2012,03,12,03,20,24.40
2012,03,12,03,21,29.30
2012,03,12,03,22,31.90
2012,03,12,03,23,23.40
2012,03,12,03,24,27.80
2012,03,12,03,25,28.90
2012,03,12,03,26,22.50
2012,03,12,03,27,26.90
2012,03,12,03,28,28.40
2012,03,12,03,29,25.30
2012,03,12,03,30,29.10
2012,03,12,03,31,23.90
2012,03,12,03,32,28.50
2012,03,12,03,33,34.20
2012,03,12,03,34,24.40
2012,03,12,03,35,24.50
2012,03,12,03,36,29.30
2012,03,12,03,37,27.30
2012,03,12,03,38,27.30
2012,03,12,03,39,24.10
2012,03,12,03,40,31.00
2012,03,12,03,41,37.10
2012,03,12,03,42,28.50
2012,03,12,03,43,25.60
2012,03,12,03,44,26.00
2012,03,12,03,45,30.30
2012,03,12,03,46,26.90
2012,03,12,03,47,35.80
2012,03,12,03,48,29.60
2012,03,12,03,49,28.60
2012,03,12,03,50,24.80
2012,03,12,03,51,26.20
2012,03,12,03,52,27.70
2012,03,12,03,53,26.90
2012,03,12,03,54,24.90
2012,03,12,03,55,25.10
2012,03,12,03,56,25.30
2012,03,12,03,57,26.40
2012,03,12,03,58,33.90
2012,03,12,03,59,28.80
2012,03,12,04,00,33.50
2012,03,12,04,01,28.80
2012,03,12,04,02,27.50
2012,03,12,04,03,38.60
2012,03,12,04,04,26.80
2012,03,12,04,05,29.20
2012,03,12,04,06,25.40
2012,03,12,04,07,29.70
2012,03,12,04,08,33.40
2012,03,12,04,09,26.20
2012,03,12,04,10,28.70
2012,03,12,04,11,34.20
2012,03,12,04,12,26.60
2012,03,12,04,13,24.10
2012,03,12,04,14,33.50
2012,03,12,04,15,37.50
2012,03,12,04,16,32.00
2012,03,12,04,17,37.60
2012,03,12,04,18,28.70
2012,03,12,04,19,32.60
2012,03,12,04,20,30.40
2012,03,12,04,21,28.90
2012,03,12,04,22,42.40
2012,03,12,04,23,37.80
2012,03,12,04,24,35.80
2012,03,12,04,25,41.00
2012,03,12,04,26,35.80
2012,03,12,04,27,34.60
2012,03,12,04,28,30.90
2012,03,12,04,29,34.80
2012,03,12,04,30,24.10
2012,03,12,04,31,34.80
2012,03,12,04,32,30.90
2012,03,12,04,33,31.60
2012,03,12,04,34,32.30
2012,03,12,04,35,31.40
2012,03,12,04,36,24.80
2012,03,12,04,37,25.70
2012,03,12,04,38,32.30
2012,03,12,04,39,29.60
2012,03,12,04,40,39.80
2012,03,12,04,41,30.00
2012,03,12,04,42,28.80
2012,03,12,04,43,24.40
2012,03,12,04,44,30.40
2012,03,12,04,45,34.40
2012,03,12,04,46,33.70
2012,03,12,04,47,29.30
2012,03,12,04,48,29.00
2012,03,12,04,49,31.00
2012,03,12,04,50,42.40
2012,03,12,04,51,31.50
2012,03,12,04,52,29.50
2012,03,12,04,53,33.50
2012,03,12,04,54,23.00
2012,03,12,04,55,18.30
2012,03,12,04,56,18.10
2012,03,12,04,57,21.70
2012,03,12,04,58,30.40
2012,03,12,04,59,21.90
2012,03,12,05,00,22.60
2012,03,12,05,01,28.00
2012,03,12,05,02,33.70
2012,03,12,05,03,33.50
2012,03,12,05,04,30.20
2012,03,12,05,05,30.50
2012,03,12,05,06,31.30
2012,03,12,05,07,34.10
2012,03,12,05,08,38.00
2012,03,12,05,09,31.90
2012,03,12,05,10,32.90
2012,03,12,05,11,32.00
2012,03,12,05,12,29.30
2012,03,12,05,13,30.40
2012,03,12,05,14,29.30
2012,03,12,05,15,31.60
2012,03,12,05,16,22.50
2012,03,12,05,17,23.80
2012,03,12,05,18,25.90
2012,03,12,05,19,29.80
2012,03,12,05,20,29.20
2012,03,12,05,21,35.80
2012,03,12,05,22,28.30
2012,03,12,05,23,28.50
2012,03,12,05,24,29.80
2012,03,12,05,25,28.40
2012,03,12,05,26,44.10
2012,03,12,05,27,37.50
2012,03,12,05,28,37.30
2012,03,12,05,29,33.60
2012,03,12,05,30,36.90
2012,03,12,05,31,38.80
2012,03,12,05,32,29.10
2012,03,12,05,33,30.80
2012,03,12,05,34,25.80
2012,03,12,05,35,36.70
2012,03,12,05,36,29.30
2012,03,12,05,37,33.30
2012,03,12,05,38,35.70
2012,03,12,05,39,33.00
2012,03,12,05,40,34.50
2012,03,12,05,41,38.80
2012,03,12,05,42,36.80
2012,03,12,05,43,34.40
2012,03,12,05,44,36.00
2012,03,12,05,45,40.40
2012,03,12,05,46,40.60
2012,03,12,05,47,20.30
2012,03,12,05,48,29.20
2012,03,12,05,49,32.70
2012,03,12,05,50,38.70
2012,03,12,05,51,30.40
2012,03,12,05,52,36.20
2012,03,12,05,53,26.60
2012,03,12,05,54,42.10
2012,03,12,05,55,29.50
2012,03,12,05,56,35.40
2012,03,12,05,57,34.80
2012,03,12,05,58,34.60
2012,03,12,05,59,24.10
2012,03,12,06,00,32.50
2012,03,12,06,01,32.80
2012,03,12,06,02,27.80
2012,03,12,06,03,26.20
2012,03,12,06,04,24.10
2012,03,12,06,05,26.20
2012,03,12,06,06,31.10
2012,03,12,06,07,34.70
2012,03,12,06,08,26.60
2012,03,12,06,09,26.60
2012,03,12,06,10,27.60
2012,03,12,06,11,29.40
2012,03,12,06,12,31.50
2012,03,12,06,13,23.40
2012,03,12,06,14,25.60
2012,03,12,06,15,34.80
2012,03,12,06,16,40.50
2012,03,12,06,17,28.80
2012,03,12,06,18,23.50
2012,03,12,06,19,31.60
2012,03,12,06,20,26.00
2012,03,12,06,21,26.60
2012,03,12,06,22,33.90
2012,03,12,06,23,34.60
2012,03,12,06,24,24.70
2012,03,12,06,25,37.90
2012,03,12,06,26,37.20
2012,03,12,06,27,34.70
2012,03,12,06,28,28.40
2012,03,12,06,29,32.00
2012,03,12,06,30,34.40
2012,03,12,06,31,29.60
2012,03,12,06,32,33.80
2012,03,12,06,33,22.00
2012,03,12,06,34,27.40
2012,03,12,06,35,33.60
2012,03,12,06,36,33.30
2012,03,12,06,37,39.10
2012,03,12,06,38,30.40
2012,03,12,06,39,28.70
2012,03,12,06,40,34.30
2012,03,12,06,41,44.10
2012,03,12,06,42,35.50
2012,03,12,06,43,29.00
2012,03,12,06,44,32.70
2012,03,12,06,45,32.00
2012,03,12,06,46,32.20
2012,03,12,06,47,38.20
2012,03,12,06,48,36.00
2012,03,12,06,49,34.90
2012,03,12,06,50,34.60
2012,03,12,06,51,30.80
2012,03,12,06,52,33.70
2012,03,12,06,53,35.90
2012,03,12,06,54,44.10
2012,03,12,06,55,33.10
2012,03,12,06,56,28.00
2012,03,12,06,57,35.30
2012,03,12,06,58,27.10
2012,03,12,06,59,25.50
2012,03,12,07,00,32.00
2012,03,12,07,01,41.30
2012,03,12,07,02,36.70
2012,03,12,07,03,26.50
2012,03,12,07,04,34.00
2012,03,12,07,05,32.10
2012,03,12,07,06,27.90
2012,03,12,07,07,43.40
2012,03,12,07,08,35.70
2012,03,12,07,09,36.00
2012,03,12,07,10,41.80
2012,03,12,07,11,41.80
2012,03,12,07,12,31.70
2012,03,12,07,13,35.30
2012,03,12,07,14,33.90
2012,03,12,07,15,28.30
2012,03,12,07,16,26.20
2012,03,12,07,17,38.80
2012,03,12,07,18,25.00
2012,03,12,07,19,36.50
2012,03,12,07,20,32.80
2012,03,12,07,21,38.30
2012,03,12,07,22,29.70
2012,03,12,07,23,46.70
2012,03,12,07,24,30.70
2012,03,12,07,25,27.30
2012,03,12,07,26,33.30
2012,03,12,07,27,36.20
2012,03,12,07,28,39.50
2012,03,12,07,29,33.70
2012,03,12,07,30,40.00
2012,03,12,07,31,31.90
2012,03,12,07,32,35.40
2012,03,12,07,33,37.70
2012,03,12,07,34,31.70
2012,03,12,07,35,37.30
2012,03,12,07,36,32.40
2012,03,12,07,37,33.70
2012,03,12,07,38,40.10
2012,03,12,07,39,40.60
2012,03,12,07,40,33.10
2012,03,12,07,41,33.20
2012,03,12,07,42,32.90
2012,03,12,07,43,36.90
2012,03,12,07,44,32.00
2012,03,12,07,45,31.90
2012,03,12,07,46,33.50
2012,03,12,07,47,26.80
2012,03,12,07,48,32.00
2012,03,12,07,49,36.80
2012,03,12,07,50,42.10
2012,03,12,07,51,36.80
2012,03,12,07,52,33.90
2012,03,12,07,53,33.50
2012,03,12,07,54,37.20
2012,03,12,07,55,38.40
2012,03,12,07,56,33.90
2012,03,12,07,57,40.20
2012,03,12,07,58,35.50
2012,03,12,07,59,34.20
2012,03,12,08,00,25.80
2012,03,12,08,01,29.90
2012,03,12,08,02,40.70
2012,03,12,08,03,37.30
2012,03,12,08,04,45.40
2012,03,12,08,05,33.60
2012,03,12,08,06,37.40
2012,03,12,08,07,43.70
2012,03,12,08,08,37.40
2012,03,12,08,09,42.50
2012,03,12,08,10,33.60
2012,03,12,08,11,30.30
2012,03,12,08,12,40.50
2012,03,12,08,13,32.00
2012,03,12,08,14,37.00
2012,03,12,08,15,36.90
2012,03,12,08,16,32.10
2012,03,12,08,17,27.90
2012,03,12,08,18,35.30
2012,03,12,08,19,37.80
2012,03,12,08,20,33.30
2012,03,12,08,21,29.30
2012,03,12,08,22,34.40
2012,03,12,08,23,28.20
2012,03,12,08,24,29.10
2012,03,12,08,25,31.30
2012,03,12,08,26,27.60
2012,03,12,08,27,32.30
2012,03,12,08,28,28.80
2012,03,12,08,29,30.80
2012,03,12,08,30,28.60
2012,03,12,08,31,28.60
2012,03,12,08,32,36.10
2012,03,12,08,33,31.70
2012,03,12,08,34,37.10
2012,03,12,08,35,28.30
2012,03,12,08,36,37.70
2012,03,12,08,37,33.90
2012,03,12,08,38,31.50
2012,03,12,08,39,32.30
2012,03,12,08,40,35.30
2012,03,12,08,41,31.00
2012,03,12,08,42,40.50
2012,03,12,08,43,31.90
2012,03,12,08,44,29.00
2012,03,12,08,45,35.50
2012,03,12,08,46,33.60
2012,03,12,08,47,41.30
2012,03,12,08,48,42.30
2012,03,12,08,49,46.70
2012,03,12,08,50,37.50
2012,03,12,08,51,38.40
2012,03,12,08,52,35.90
2012,03,12,08,53,35.30
2012,03,12,08,54,35.60
2012,03,12,08,55,26.90
2012,03,12,08,56,28.20
2012,03,12,08,57,28.40
2012,03,12,08,58,38.70
2012,03,12,08,59,29.90
2012,03,12,09,00,40.20
2012,03,12,09,01,40.70
2012,03,12,09,02,33.50
2012,03,12,09,03,46.50
2012,03,12,09,04,41.00
2012,03,12,09,05,27.30
2012,03,12,09,06,42.00
2012,03,12,09,07,36.30
2012,03,12,09,08,38.10
2012,03,12,09,09,32.60
2012,03,12,09,10,38.50
2012,03,12,09,11,33.70
2012,03,12,09,12,33.10
2012,03,12,09,13,29.20
2012,03,12,09,14,28.50
2012,03,12,09,15,33.60
2012,03,12,09,16,32.80
2012,03,12,09,17,33.80
2012,03,12,09,18,27.70
2012,03,12,09,19,34.50
2012,03,12,09,20,33.30
2012,03,12,09,21,38.30
2012,03,12,09,22,37.60
2012,03,12,09,23,31.70
2012,03,12,09,24,35.20
2012,03,12,09,25,33.60
2012,03,12,09,26,36.00
2012,03,12,09,27,33.50
2012,03,12,09,28,37.20
2012,03,12,09,29,29.80
2012,03,12,09,30,34.40
2012,03,12,09,31,34.30
2012,03,12,09,32,32.90
2012,03,12,09,33,33.40
2012,03,12,09,34,37.90
2012,03,12,09,35,31.50
2012,03,12,09,36,35.80
2012,03,12,09,37,52.30
2012,03,12,09,38,38.30
2012,03,12,09,39,37.40
2012,03,12,09,40,36.30
2012,03,12,09,41,34.80
2012,03,12,09,42,31.10
2012,03,12,09,43,35.10
2012,03,12,09,44,38.40
2012,03,12,09,45,35.50
2012,03,12,09,46,28.20
2012,03,12,09,47,30.20
2012,03,12,09,48,26.30
2012,03,12,09,49,25.60
2012,03,12,09,50,31.60
2012,03,12,09,51,33.60
2012,03,12,09,52,30.40
2012,03,12,09,53,31.30
2012,03,12,09,54,32.10
2012,03,12,09,55,27.80
2012,03,12,09,56,39.00
2012,03,12,09,57,39.20
2012,03,12,09,58,30.70
2012,03,12,09,59,33.80
2012,03,12,10,00,29.10
2012,03,12,10,01,30.60
2012,03,12,10,02,28.50
2012,03,12,10,03,23.30
2012,03,12,10,04,25.10
2012,03,12,10,05,34.40
2012,03,12,10,06,29.30
2012,03,12,10,07,26.90
2012,03,12,10,08,20.00
2012,03,12,10,09,22.50
2012,03,12,10,10,27.60
2012,03,12,10,11,24.00
2012,03,12,10,12,32.40
2012,03,12,10,13,28.00
2012,03,12,10,14,19.90
2012,03,12,10,15,30.60
2012,03,12,10,16,30.20
2012,03,12,10,17,31.30
2012,03,12,10,18,30.20
2012,03,12,10,19,26.50
2012,03,12,10,20,21.80
2012,03,12,10,21,28.00
2012,03,12,10,22,31.30
2012,03,12,10,23,32.60
2012,03,12,10,24,21.80
2012,03,12,10,25,37.90
2012,03,12,10,26,30.10
2012,03,12,10,27,17.80
2012,03,12,10,28,33.70
2012,03,12,10,29,31.10
2012,03,12,10,30,25.50
2012,03,12,10,31,24.40
2012,03,12,10,32,28.00
2012,03,12,10,33,28.50
2012,03,12,10,34,27.10
2012,03,12,10,35,30.70
2012,03,12,10,36,23.30
2012,03,12,10,37,24.00
2012,03,12,10,38,26.10
2012,03,12,10,39,31.50
2012,03,12,10,40,26.50
2012,03,12,10,41,23.90
2012,03,12,10,42,17.00
2012,03,12,10,43,20.90
2012,03,12,10,44,25.10
2012,03,12,10,45,26.20
2012,03,12,10,46,22.50
2012,03,12,10,47,29.70
2012,03,12,10,48,25.30
2012,03,12,10,49,26.20
2012,03,12,10,50,23.90
2012,03,12,10,51,24.70
2012,03,12,10,52,22.40
2012,03,12,10,53,18.60
2012,03,12,10,54,21.60
2012,03,12,10,55,17.30
2012,03,12,10,56,26.70
2012,03,12,10,57,28.30
2012,03,12,10,58,26.20
2012,03,12,10,59,13.90
2012,03,12,11,00,19.40
2012,03,12,11,01,21.10
2012,03,12,11,02,17.00
2012,03,12,11,03,23.00
2012,03,12,11,04,14.90
2012,03,12,11,05,19.00
2012,03,12,11,06,12.10
2012,03,12,11,07,18.20
2012,03,12,11,08,13.80
2012,03,12,11,09,21.70
2012,03,12,11,10,21.90
2012,03,12,11,11,12.70
2012,03,12,11,12,23.80
2012,03,12,11,13,20.80
2012,03,12,11,14,25.80
2012,03,12,11,15,18.00
2012,03,12,11,16,23.40
2012,03,12,11,17,23.70
2012,03,12,11,18,20.10
2012,03,12,11,19,21.40
2012,03,12,11,20,23.10
2012,03,12,11,21,20.20
2012,03,12,11,22,23.60
2012,03,12,11,23,23.50
2012,03,12,11,24,21.80
2012,03,12,11,25,20.20
2012,03,12,11,26,21.90
2012,03,12,11,27,20.30
2012,03,12,11,28,26.10
2012,03,12,11,29,18.00
2012,03,12,11,30,22.00
2012,03,12,11,31,22.50
2012,03,12,11,32,23.30
2012,03,12,11,33,19.00
2012,03,12,11,34,20.20
2012,03,12,11,35,20.10
2012,03,12,11,36,19.90
2012,03,12,11,37,20.20
2012,03,12,11,38,14.40
2012,03,12,11,39,17.90
2012,03,12,11,40,18.40
2012,03,12,11,41,19.90
2012,03,12,11,42,15.80
2012,03,12,11,43,20.60
2012,03,12,11,44,21.90
2012,03,12,11,45,22.50
2012,03,12,11,46,13.90
2012,03,12,11,47,11.10
2012,03,12,11,48,22.00
2012,03,12,11,49,20.80
2012,03,12,11,50,18.40
2012,03,12,11,51,12.90
2012,03,12,11,52,20.90
2012,03,12,11,53,13.30
2012,03,12,11,54,8.30
2012,03,12,11,55,14.80
2012,03,12,11,56,14.50
2012,03,12,11,57,14.60
2012,03,12,11,58,15.60
2012,03,12,11,59,11.60
2012,03,12,12,00,14.50
2012,03,12,12,01,20.00
2012,03,12,12,02,11.10
2012,03,12,12,03,25.80
2012,03,12,12,04,19.60
2012,03,12,12,05,18.80
2012,03,12,12,06,21.30
2012,03,12,12,07,22.70
2012,03,12,12,08,17.50
2012,03,12,12,09,18.50
2012,03,12,12,10,14.90
2012,03,12,12,11,14.80
2012,03,12,12,12,16.60
2012,03,12,12,13,12.40
2012,03,12,12,14,14.00
2012,03,12,12,15,12.10
2012,03,12,12,16,14.10
2012,03,12,12,17,16.40
2012,03,12,12,18,15.60
2012,03,12,12,19,16.50
2012,03,12,12,20,10.00
2012,03,12,12,21,6.90
2012,03,12,12,22,6.00
2012,03,12,12,23,3.40
2012,03,12,12,24,7.60
2012,03,12,12,25,12.60
2012,03,12,12,26,12.20
2012,03,12,12,27,14.00
2012,03,12,12,28,9.10
2012,03,12,12,29,14.20
2012,03,12,12,30,9.10
2012,03,12,12,31,10.30
2012,03,12,12,32,9.40
2012,03,12,12,33,7.00
2012,03,12,12,34,6.80
2012,03,12,12,35,6.40
2012,03,12,12,36,7.60
2012,03,12,12,37,5.20
2012,03,12,12,38,8.90
2012,03,12,12,39,7.20
2012,03,12,12,40,10.50
2012,03,12,12,41,7.30
2012,03,12,12,42,4.50
2012,03,12,12,43,3.40
2012,03,12,12,44,2.40
2012,03,12,12,45,2.20
2012,03,12,12,46,6.50
2012,03,12,12,47,5.80
2012,03,12,12,48,4.60
2012,03,12,12,49,2.40
2012,03,12,12,50,2.10
2012,03,12,12,51,4.20
2012,03,12,12,52,2.30
2012,03,12,12,53,3.50
2012,03,12,12,54,3.20
2012,03,12,12,55,3.20
2012,03,12,12,56,5.80
2012,03,12,12,57,1.80
2012,03,12,12,58,0.50
2012,03,12,12,59,4.70
2012,03,12,13,00,4.80
2012,03,12,13,01,7.10
2012,03,12,13,02,6.30
2012,03,12,13,03,6.20
2012,03,12,13,04,4.80
2012,03,12,13,05,3.00
2012,03,12,13,06,0.40
2012,03,12,13,07,2.60
2012,03,12,13,08,0.10
2012,03,12,13,09,0.00
2012,03,12,13,10,0.00
2012,03,12,13,11,0.00
2012,03,12,13,12,2.80
2012,03,12,13,13,0.90
2012,03,12,13,14,0.30
2012,03,12,13,15,0.60
2012,03,12,13,16,1.20
2012,03,12,13,17,0.00
2012,03,12,13,18,0.50
2012,03,12,13,19,3.10
2012,03,12,13,20,0.50
2012,03,12,13,21,0.00
2012,03,12,13,22,0.10
2012,03,12,13,23,0.00
2012,03,12,13,24,0.00
2012,03,12,13,25,0.00
2012,03,12,13,26,0.00
2012,03,12,13,27,0.00
2012,03,12,13,28,0.00
2012,03,12,13,29,0.10
2012,03,12,13,30,0.00
2012,03,12,13,31,0.00
2012,03,12,13,32,0.10
2012,03,12,13,33,0.10
2012,03,12,13,34,0.30
2012,03,12,13,35,0.00
2012,03,12,13,36,0.70
2012,03,12,13,37,0.00
2012,03,12,13,38,0.00
2012,03,12,13,39,0.00
2012,03,12,13,40,1.80
2012,03,12,13,41,2.40
2012,03,12,13,42,2.80
2012,03,12,13,43,0.30
2012,03,12,13,44,0.00
2012,03,12,13,45,0.00
2012,03,12,13,46,0.50
2012,03,12,13,47,0.70
2012,03,12,13,48,0.40
2012,03,12,13,49,1.70
2012,03,12,13,50,1.60
2012,03,12,13,51,2.70
2012,03,12,13,52,2.90
2012,03,12,13,53,4.60
2012,03,12,13,54,1.90
2012,03,12,13,55,0.00
2012,03,12,13,56,1.50
2012,03,12,13,57,3.00
2012,03,12,13,58,3.70
2012,03,12,13,59,1.40
2012,03,12,14,00,1.60
2012,03,12,14,01,0.90
2012,03,12,14,02,1.80
2012,03,12,14,03,0.00
2012,03,12,14,04,0.70
2012,03,12,14,05,1.90
2012,03,12,14,06,3.00
2012,03,12,14,07,1.60
2012,03,12,14,08,2.20
2012,03,12,14,09,0.60
2012,03,12,14,10,1.00
2012,03,12,14,11,1.30
2012,03,12,14,12,1.70
2012,03,12,14,13,1.20
2012,03,12,14,14,1.40
2012,03,12,14,15,0.10
2012,03,12,14,16,0.00
2012,03,12,14,17,0.00
2012,03,12,14,18,0.40
2012,03,12,14,19,0.20
2012,03,12,14,20,0.40
2012,03,12,14,21,1.60
2012,03,12,14,22,0.40
2012,03,12,14,23,1.70
2012,03,12,14,24,1.50
2012,03,12,14,25,0.90
2012,03,12,14,26,1.20
2012,03,12,14,27,0.10
2012,03,12,14,28,0.80
2012,03,12,14,29,1.40
2012,03,12,14,30,2.70
2012,03,12,14,31,1.40
2012,03,12,14,32,3.60
2012,03,12,14,33,1.90
2012,03,12,14,34,0.80
2012,03,12,14,35,4.20
2012,03,12,14,36,3.80
2012,03,12,14,37,2.70
2012,03,12,14,38,2.40
2012,03,12,14,39,2.00
2012,03,12,14,40,1.90
2012,03,12,14,41,1.30
2012,03,12,14,42,3.60
2012,03,12,14,43,4.10
2012,03,12,14,44,1.00
2012,03,12,14,45,0.10
2012,03,12,14,46,1.30
2012,03,12,14,47,0.00
2012,03,12,14,48,2.10
2012,03,12,14,49,2.40
2012,03,12,14,50,0.10
2012,03,12,14,51,0.20
2012,03,12,14,52,0.00
2012,03,12,14,53,0.30
2012,03,12,14,54,0.20
2012,03,12,14,55,0.00
2012,03,12,14,56,0.10
2012,03,12,14,57,1.40
2012,03,12,14,58,2.60
2012,03,12,14,59,0.90
2012,03,12,15,00,0.10
2012,03,12,15,01,1.70
2012,03,12,15,02,0.30
2012,03,12,15,03,0.40
2012,03,12,15,04,1.30
2012,03,12,15,05,0.80
2012,03,12,15,06,0.50
2012,03,12,15,07,1.10
2012,03,12,15,08,2.20
2012,03,12,15,09,1.10
2012,03,12,15,10,0.90
2012,03,12,15,11,0.40
2012,03,12,15,12,0.00
2012,03,12,15,13,0.00
2012,03,12,15,14,0.00
2012,03,12,15,15,0.00
2012,03,12,15,16,0.00
2012,03,12,15,17,0.00
2012,03,12,15,18,0.00
2012,03,12,15,19,0.10
2012,03,12,15,20,0.00
2012,03,12,15,21,0.10
2012,03,12,15,22,0.00
2012,03,12,15,23,0.10
2012,03,12,15,24,0.00
2012,03,12,15,25,0.00
2012,03,12,15,26,0.00
2012,03,12,15,27,0.00
2012,03,12,15,28,0.20
2012,03,12,15,29,0.00
2012,03,12,15,30,0.10
2012,03,12,15,31,0.00
2012,03,12,15,32,0.00
2012,03,12,15,33,0.00
2012,03,12,15,34,0.10
2012,03,12,15,35,0.30
2012,03,12,15,36,0.00
2012,03,12,15,37,0.10
2012,03,12,15,38,0.10
2012,03,12,15,39,0.50
2012,03,12,15,40,0.00
2012,03,12,15,41,0.10
2012,03,12,15,42,0.00
2012,03,12,15,43,0.00
2012,03,12,15,44,0.00
2012,03,12,15,45,0.00
2012,03,12,15,46,0.00
2012,03,12,15,47,0.00
2012,03,12,15,48,0.60
2012,03,12,15,49,0.90
2012,03,12,15,50,1.70
2012,03,12,15,51,0.10
2012,03,12,15,52,0.60
2012,03,12,15,53,2.20
2012,03,12,15,54,0.40
2012,03,12,15,55,0.70
2012,03,12,15,56,1.90
2012,03,12,15,57,1.80
2012,03,12,15,58,0.20
2012,03,12,15,59,1.10
2012,03,12,16,00,2.70
2012,03,12,16,01,0.20
2012,03,12,16,02,0.40
2012,03,12,16,03,1.80
2012,03,12,16,04,1.70
2012,03,12,16,05,2.00
2012,03,12,16,06,0.70
2012,03,12,16,07,0.10
2012,03,12,16,08,0.40
2012,03,12,16,09,0.30
2012,03,12,16,10,0.40
2012,03,12,16,11,0.60
2012,03,12,16,12,0.00
2012,03,12,16,13,0.00
2012,03,12,16,14,0.00
2012,03,12,16,15,0.00
2012,03,12,16,16,0.00
2012,03,12,16,17,0.00
2012,03,12,16,18,0.00
2012,03,12,16,19,0.00
2012,03,12,16,20,0.00
2012,03,12,16,21,0.00
2012,03,12,16,22,0.00
2012,03,12,16,23,0.00
2012,03,12,16,24,0.10
2012,03,12,16,25,0.00
2012,03,12,16,26,0.10
2012,03,12,16,27,0.00
2012,03,12,16,28,0.00
2012,03,12,16,29,0.00
2012,03,12,16,30,0.00
2012,03,12,16,31,0.00
2012,03,12,16,32,0.10
2012,03,12,16,33,0.00
2012,03,12,16,34,0.00
2012,03,12,16,35,0.00
2012,03,12,16,36,0.00
2012,03,12,16,37,0.00
2012,03,12,16,38,0.00
2012,03,12,16,39,0.00
2012,03,12,16,40,0.00
2012,03,12,16,41,0.00
2012,03,12,16,42,0.00
2012,03,12,16,43,0.00
2012,03,12,16,44,0.00
2012,03,12,16,45,0.00
2012,03,12,16,46,0.00
2012,03,12,16,47,0.00
2012,03,12,16,48,0.00
2012,03,12,16,49,0.00
2012,03,12,16,50,0.00
2012,03,12,16,51,0.00
2012,03,12,16,52,0.00
2012,03,12,16,53,0.00
2012,03,12,16,54,0.00
2012,03,12,16,55,0.00
2012,03,12,16,56,0.00
2012,03,12,16,57,0.00
2012,03,12,16,58,0.00
2012,03,12,16,59,0.00
2012,03,12,17,00,0.00
2012,03,12,17,01,0.00
2012,03,12,17,02,0.00
2012,03,12,17,03,0.00
2012,03,12,17,04,0.00
2012,03,12,17,05,0.00
2012,03,12,17,06,0.10
2012,03,12,17,07,0.00
2012,03,12,17,08,0.00
2012,03,12,17,09,0.00
2012,03,12,17,10,1.10
2012,03,12,17,11,0.00
2012,03,12,17,12,0.00
2012,03,12,17,13,0.00
2012,03,12,17,14,0.00
2012,03,12,17,15,0.00
2012,03,12,17,16,0.00
2012,03,12,17,17,0.00
2012,03,12,17,18,0.00
2012,03,12,17,19,0.40
2012,03,12,17,20,0.80
2012,03,12,17,21,0.10
2012,03,12,17,22,0.00
2012,03,12,17,23,0.10
2012,03,12,17,24,0.00
2012,03,12,17,25,0.20
2012,03,12,17,26,0.30
2012,03,12,17,27,0.10
2012,03,12,17,28,0.20
2012,03,12,17,29,0.00
2012,03,12,17,30,0.10
2012,03,12,17,31,0.40
2012,03,12,17,32,0.80